Regional Weather Roundup
Issued by NWS

Home | Current Version | Previous Version | Graphics & Text | Print | Product List | Glossary On
Versions: 1 2 3 4 5 6 7 8 9 10 11 12 13 14 15 16 17 18 19 20 21 22 23 24 25 26 27 28 29 30 31 32 33 34 35 36 37 38 39 40 41 42 43 44 45 46 47 48 49 50
000
ASUS43 KLOT 281606
RWRIL

ILLINOIS REGIONAL WEATHER ROUNDUP
NATIONAL WEATHER SERVICE CHICAGO/ROMEOVILLE IL
1000 AM CST SAT FEB 28 2015

NOTE: "FAIR" INDICATES FEW OR NO CLOUDS BELOW 12,000 FEET WITH NO
SIGNIFICANT WEATHER AND/OR OBSTRUCTIONS TO VISIBILITY.

* THESE STATIONS ARE NOT UNDER NWS QUALITY CONTROL. THEY ALSO MAY NOT
  REPORT WEATHER SUCH AS PRECIPITATION OR FOG.

ILZ001-002-007-009-015-016-024-281700-
NORTHWEST ILLINOIS

CITY           SKY/WX    TMP DP  RH WIND       PRES   REMARKS
MOLINE         SUNNY      9  -2  61 SE10      30.67F WCI  -5
STERLING*      SUNNY      3   0  85 E5        30.69S WCI  -6
SAVANNA*       SUNNY      2  -3  77 CALM      30.69F
$$

ILZ003-004-008-010-011-017-018-281700-
NORTH CENTRAL ILLINOIS

CITY           SKY/WX    TMP DP  RH WIND       PRES   REMARKS
ROCKFORD       SUNNY      6  -3  66 VRB3      30.70F
FREEPORT*      SUNNY     -5 -10  79 CALM      30.69F
ROCHELLE*      SUNNY      6   1  79 SE8       30.69F WCI  -7
DE KALB*       SUNNY      4  -2  75 SE6       30.68F WCI  -6
PERU*          SUNNY     13   1  59 SE5       30.70F WCI   5
$$

ILZ005-006-012>014-019>023-281700-
NORTHEAST ILLINOIS

CITY           SKY/WX    TMP DP  RH WIND       PRES   REMARKS
CHICAGO-OHARE  MOSUNNY   10  -1  61 SE7       30.70F WCI  -1
CHICAGO-MIDWAY MOSUNNY   14   1  56 S6        30.72F WCI   5
AURORA         SUNNY      9  -1  64 SE5       30.71S WCI   1
LANSING*       SUNNY     10   7  88 CALM      30.73S
JOLIET*        MOSUNNY    9   6  86 SE6       30.72F WCI   0
WAUKEGAN       SUNNY     10  -3  55 SW7       30.70F WCI  -1
DUPAGE AIRPORT SUNNY      9  -1  64 S6        30.69F WCI  -1
KANKAKEE*      CLOUDY    12   2  64 E8        30.72S WCI   1
WHEELING       SUNNY     11  -3  53 S6        30.73F WCI   1
MORRIS*        SUNNY      2  -1  87 CALM      30.72S FOG
ROMEOVILLE*    MOSUNNY    8   5  85 CALM      30.71F
NORTHERLY ISL    N/A     15   1  53 CALM        N/A
$$

LMZ740>746-281700-
SOUTHERN LAKE MICHIGAN

STATION/POSITION SKY/WX   TEMP    WIND        PRES    VSBY  WAVE
                          AIR SEA DIR/SP/G                  HT/PER
                          (F)     (DEG/KT/KT) (MB)    (MI)  (FT/S)
WAUKEGAN HARBOR            11     220/  7/ 10   N/A
HARRISON CRIB              11     170/  8/ 12   N/A
BURNHAM HARBOR             15     150/  1/  5   N/A
CALUMET HARBOR             13     130/  5/  7 1039.0F
MICHIGAN CITY              11     150/  6/  8   N/A
$$

ILZ025>027-034>036-040-047-049-050-058-095>099-281700-
WEST-CENTRAL ILLINOIS

CITY           SKY/WX    TMP DP  RH WIND       PRES   REMARKS
QUINCY         SUNNY     15   3  59 SE8       30.61F WCI   4
GALESBURG*     CLOUDY    13   3  64 E8        30.64F WCI   2
MACOMB*        MOSUNNY   12   4  70 SE10      30.67F WCI  -1
JACKSONVILLE*  SUNNY     16   7  68 E7        30.65F WCI   6
PITTSFIELD*    SUNNY     18   6  60 SE5       30.63F WCI  11
$$

ILZ028>032-037-038-041>044-048-051>054-059>061-281700-
CENTRAL ILLINOIS

CITY           SKY/WX    TMP DP  RH WIND       PRES   REMARKS
PONTIAC        CLOUDY    10   3  71 SE9       30.71S WCI  -2
BLOOMINGTON    MOSUNNY   16   6  64 SE10      30.67F WCI   4
DECATUR        CLOUDY    16   6  65 E10       30.66F WCI   4
PEORIA         PTSUNNY   17   2  51 SE8       30.67F WCI   7
LACON*         CLOUDY    13   1  57 SE13      30.69S WCI  -1
LINCOLN*       MOSUNNY   21   8  57 SE8       30.69F WCI  11
SPRINGFIELD    MOSUNNY   18   5  57 E7        30.66F WCI   9
TAYLORVILLE    MOSUNNY   19   5  53 E7        30.65F WCI  10
$$

ILZ033-039-045-046-055>057-062-063-281700-
EAST-CENTRAL ILLINOIS

CITY           SKY/WX    TMP DP  RH WIND       PRES   REMARKS
CHAMPAIGN      CLOUDY    15   6  67 E12       30.68F WCI   2
DANVILLE*      PTSUNNY   15   6  67 E5        30.67S WCI   8
RANTOUL*       PTSUNNY   20   7  58 SE10      30.68F WCI   8
MATTOON        CLOUDY    19   6  57 SE10      30.65F WCI   7
PARIS*         CLOUDY    18   8  63 SE7       30.70F WCI   9
$$

ILZ079-100>102-281700-
SOUTHWEST ILLINOIS

CITY           SKY/WX    TMP DP  RH WIND       PRES   REMARKS
ALTON          CLOUDY    19   3  49 E7        30.65F WCI  10
BELLEVILLE     CLOUDY    23   9  53 SE8       30.64S WCI  14
CAHOKIA*       CLOUDY    24   8  50 SE7       30.65F WCI  16
SPARTA*        CLOUDY    22  10  60 SE7       30.64F WCI  14
$$

ILZ064>066-069>071-074>076-080>082-084>086-088>090-092>094-281700-
SOUTH-CENTRAL ILLINOIS

CITY           SKY/WX    TMP DP  RH WIND       PRES   REMARKS
CARBONDALE     CLOUDY    25  11  55 E9        30.64F WCI  15
CAIRO*         CLOUDY    28  14  57 NE8       30.63F WCI  19
EFFINGHAM*     MOSUNNY   22   4  46 E7        30.67F WCI  13
MARION         CLOUDY    27  12  54 E9        30.65F WCI  17
MT. VERNON     CLOUDY    23  10  58 E8        30.66S WCI  14
CENTRALIA*     CLOUDY    23   9  54 SE8       30.65S WCI  14
SALEM*         PTSUNNY   23   7  50 SE6       30.65F WCI  16
METROPOLIS*    CLOUDY    27  13  56 E5        30.62F WCI  22
$$

ILZ067-068-072-073-078-083-087-091-281700-
SOUTHEAST ILLINOIS

CITY           SKY/WX    TMP DP  RH WIND       PRES   REMARKS
LAWRENCEVILLE  CLOUDY    22   9  57 E12       30.68F WCI  10
FLORA*         MOSUNNY   22  10  58 E7        30.67F WCI  14
FAIRFIELD*     CLOUDY    24  11  59 E7        30.65F WCI  16
HARRISBURG*    PTSUNNY   26  13  59 E10       30.66F WCI  16
ROBINSON*      CLOUDY    23   8  53 E10       30.70F WCI  12
CARMI*         PTSUNNY   29  14  54 E8        30.65F WCI  21
$$

ABBREVIATIONS USED IN REMARKS
   TC - TEMPERATURE IN CELSIUS
  WCI - WIND CHILL INDEX
   HX - HEAT INDEX
  VSB - VISIBILITY
$$




USA.gov is the U.S. government's official web portal to all federal, state and local government web resources and services.